Year,Month,Day,Hour,Minute,Value (Times are PST for windgust in km/hr)
2012,03,12,00,00,11.30
2012,03,12,00,01,9.60
2012,03,12,00,02,20.90
2012,03,12,00,03,16.10
2012,03,12,00,04,16.10
2012,03,12,00,05,9.60
2012,03,12,00,06,20.90
2012,03,12,00,07,19.30
2012,03,12,00,08,17.70
2012,03,12,00,09,19.30
2012,03,12,00,10,11.30
2012,03,12,00,11,16.10
2012,03,12,00,12,9.60
2012,03,12,00,13,24.20
2012,03,12,00,14,25.70
2012,03,12,00,15,17.70
2012,03,12,00,16,17.70
2012,03,12,00,17,16.10
2012,03,12,00,18,11.30
2012,03,12,00,19,17.70
2012,03,12,00,20,14.50
2012,03,12,00,21,19.30
2012,03,12,00,22,16.10
2012,03,12,00,23,14.50
2012,03,12,00,24,14.50
2012,03,12,00,25,20.90
2012,03,12,00,26,9.60
2012,03,12,00,27,11.30
2012,03,12,00,28,11.30
2012,03,12,00,29,9.60
2012,03,12,00,30,14.50
2012,03,12,00,31,20.90
2012,03,12,00,32,14.50
2012,03,12,00,33,14.50
2012,03,12,00,34,9.60
2012,03,12,00,35,14.50
2012,03,12,00,36,8.10
2012,03,12,00,37,8.10
2012,03,12,00,38,9.60
2012,03,12,00,39,14.50
2012,03,12,00,40,8.10
2012,03,12,00,41,16.10
2012,03,12,00,42,8.10
2012,03,12,00,43,8.10
2012,03,12,00,44,6.40
2012,03,12,00,45,19.30
2012,03,12,00,46,16.10
2012,03,12,00,47,14.50
2012,03,12,00,48,9.60
2012,03,12,00,49,11.30
2012,03,12,00,50,11.30
2012,03,12,00,51,11.30
2012,03,12,00,52,12.90
2012,03,12,00,53,17.70
2012,03,12,00,54,8.10
2012,03,12,00,55,16.10
2012,03,12,00,56,17.70
2012,03,12,00,57,17.70
2012,03,12,00,58,14.50
2012,03,12,00,59,24.20
2012,03,12,01,00,19.30
2012,03,12,01,01,19.30
2012,03,12,01,02,14.50
2012,03,12,01,03,16.10
2012,03,12,01,04,24.20
2012,03,12,01,05,9.60
2012,03,12,01,06,24.20
2012,03,12,01,07,17.70
2012,03,12,01,08,14.50
2012,03,12,01,09,19.30
2012,03,12,01,10,19.30
2012,03,12,01,11,19.30
2012,03,12,01,12,16.10
2012,03,12,01,13,16.10
2012,03,12,01,14,14.50
2012,03,12,01,15,16.10
2012,03,12,01,16,17.70
2012,03,12,01,17,17.70
2012,03,12,01,18,9.60
2012,03,12,01,19,14.50
2012,03,12,01,20,14.50
2012,03,12,01,21,16.10
2012,03,12,01,22,14.50
2012,03,12,01,23,9.60
2012,03,12,01,24,8.10
2012,03,12,01,25,17.70
2012,03,12,01,26,11.30
2012,03,12,01,27,14.50
2012,03,12,01,28,16.10
2012,03,12,01,29,6.40
2012,03,12,01,30,14.50
2012,03,12,01,31,16.10
2012,03,12,01,32,9.60
2012,03,12,01,33,8.10
2012,03,12,01,34,11.30
2012,03,12,01,35,16.10
2012,03,12,01,36,14.50
2012,03,12,01,37,16.10
2012,03,12,01,38,14.50
2012,03,12,01,39,11.30
2012,03,12,01,40,19.30
2012,03,12,01,41,20.90
2012,03,12,01,42,25.70
2012,03,12,01,43,16.10
2012,03,12,01,44,16.10
2012,03,12,01,45,19.30
2012,03,12,01,46,17.70
2012,03,12,01,47,16.10
2012,03,12,01,48,16.10
2012,03,12,01,49,25.70
2012,03,12,01,50,19.30
2012,03,12,01,51,29.00
2012,03,12,01,52,25.70
2012,03,12,01,53,24.20
2012,03,12,01,54,24.20
2012,03,12,01,55,16.10
2012,03,12,01,56,16.10
2012,03,12,01,57,22.50
2012,03,12,01,58,25.70
2012,03,12,01,59,19.30
2012,03,12,02,00,24.20
2012,03,12,02,01,27.40
2012,03,12,02,02,9.60
2012,03,12,02,03,14.50
2012,03,12,02,04,19.30
2012,03,12,02,05,19.30
2012,03,12,02,06,11.30
2012,03,12,02,07,16.10
2012,03,12,02,08,19.30
2012,03,12,02,09,24.20
2012,03,12,02,10,27.40
2012,03,12,02,11,20.90
2012,03,12,02,12,19.30
2012,03,12,02,13,29.00
2012,03,12,02,14,20.90
2012,03,12,02,15,14.50
2012,03,12,02,16,29.00
2012,03,12,02,17,27.40
2012,03,12,02,18,19.30
2012,03,12,02,19,29.00
2012,03,12,02,20,25.70
2012,03,12,02,21,27.40
2012,03,12,02,22,27.40
2012,03,12,02,23,24.20
2012,03,12,02,24,30.60
2012,03,12,02,25,24.20
2012,03,12,02,26,20.90
2012,03,12,02,27,24.20
2012,03,12,02,28,20.90
2012,03,12,02,29,16.10
2012,03,12,02,30,17.70
2012,03,12,02,31,25.70
2012,03,12,02,32,22.50
2012,03,12,02,33,27.40
2012,03,12,02,34,20.90
2012,03,12,02,35,20.90
2012,03,12,02,36,19.30
2012,03,12,02,37,32.20
2012,03,12,02,38,27.40
2012,03,12,02,39,25.70
2012,03,12,02,40,24.20
2012,03,12,02,41,27.40
2012,03,12,02,42,22.50
2012,03,12,02,43,20.90
2012,03,12,02,44,16.10
2012,03,12,02,45,24.20
2012,03,12,02,46,27.40
2012,03,12,02,47,33.80
2012,03,12,02,48,24.20
2012,03,12,02,49,35.40
2012,03,12,02,50,24.20
2012,03,12,02,51,19.30
2012,03,12,02,52,27.40
2012,03,12,02,53,27.40
2012,03,12,02,54,35.40
2012,03,12,02,55,24.20
2012,03,12,02,56,20.90
2012,03,12,02,57,17.70
2012,03,12,02,58,14.50
2012,03,12,02,59,19.30
2012,03,12,03,00,30.60
2012,03,12,03,01,25.70
2012,03,12,03,02,19.30
2012,03,12,03,03,19.30
2012,03,12,03,04,25.70
2012,03,12,03,05,40.20
2012,03,12,03,06,30.60
2012,03,12,03,07,20.90
2012,03,12,03,08,22.50
2012,03,12,03,09,24.20
2012,03,12,03,10,19.30
2012,03,12,03,11,29.00
2012,03,12,03,12,30.60
2012,03,12,03,13,32.20
2012,03,12,03,14,27.40
2012,03,12,03,15,22.50
2012,03,12,03,16,29.00
2012,03,12,03,17,17.70
2012,03,12,03,18,29.00
2012,03,12,03,19,27.40
2012,03,12,03,20,20.90
2012,03,12,03,21,24.20
2012,03,12,03,22,29.00
2012,03,12,03,23,38.60
2012,03,12,03,24,32.20
2012,03,12,03,25,37.00
2012,03,12,03,26,27.40
2012,03,12,03,27,27.40
2012,03,12,03,28,25.70
2012,03,12,03,29,48.30
2012,03,12,03,30,32.20
2012,03,12,03,31,24.20
2012,03,12,03,32,20.90
2012,03,12,03,33,24.20
2012,03,12,03,34,32.20
2012,03,12,03,35,30.60
2012,03,12,03,36,33.80
2012,03,12,03,37,20.90
2012,03,12,03,38,19.30
2012,03,12,03,39,27.40
2012,03,12,03,40,22.50
2012,03,12,03,41,30.60
2012,03,12,03,42,32.20
2012,03,12,03,43,19.30
2012,03,12,03,44,25.70
2012,03,12,03,45,14.50
2012,03,12,03,46,30.60
2012,03,12,03,47,32.20
2012,03,12,03,48,32.20
2012,03,12,03,49,20.90
2012,03,12,03,50,22.50
2012,03,12,03,51,24.20
2012,03,12,03,52,17.70
2012,03,12,03,53,20.90
2012,03,12,03,54,20.90
2012,03,12,03,55,25.70
2012,03,12,03,56,25.70
2012,03,12,03,57,27.40
2012,03,12,03,58,25.70
2012,03,12,03,59,19.30
2012,03,12,04,00,25.70
2012,03,12,04,01,17.70
2012,03,12,04,02,24.20
2012,03,12,04,03,16.10
2012,03,12,04,04,14.50
2012,03,12,04,05,32.20
2012,03,12,04,06,24.20
2012,03,12,04,07,25.70
2012,03,12,04,08,24.20
2012,03,12,04,09,33.80
2012,03,12,04,10,32.20
2012,03,12,04,11,25.70
2012,03,12,04,12,11.30
2012,03,12,04,13,11.30
2012,03,12,04,14,20.90
2012,03,12,04,15,35.40
2012,03,12,04,16,29.00
2012,03,12,04,17,46.70
2012,03,12,04,18,29.00
2012,03,12,04,19,30.60
2012,03,12,04,20,29.00
2012,03,12,04,21,27.40
2012,03,12,04,22,30.60
2012,03,12,04,23,22.50
2012,03,12,04,24,19.30
2012,03,12,04,25,29.00
2012,03,12,04,26,27.40
2012,03,12,04,27,19.30
2012,03,12,04,28,17.70
2012,03,12,04,29,19.30
2012,03,12,04,30,25.70
2012,03,12,04,31,32.20
2012,03,12,04,32,32.20
2012,03,12,04,33,19.30
2012,03,12,04,34,24.20
2012,03,12,04,35,20.90
2012,03,12,04,36,25.70
2012,03,12,04,37,17.70
2012,03,12,04,38,27.40
2012,03,12,04,39,29.00
2012,03,12,04,40,22.50
2012,03,12,04,41,25.70
2012,03,12,04,42,27.40
2012,03,12,04,43,20.90
2012,03,12,04,44,25.70
2012,03,12,04,45,33.80
2012,03,12,04,46,29.00
2012,03,12,04,47,37.00
2012,03,12,04,48,29.00
2012,03,12,04,49,29.00
2012,03,12,04,50,27.40
2012,03,12,04,51,43.50
2012,03,12,04,52,30.60
2012,03,12,04,53,29.00
2012,03,12,04,54,29.00
2012,03,12,04,55,30.60
2012,03,12,04,56,33.80
2012,03,12,04,57,30.60
2012,03,12,04,58,24.20
2012,03,12,04,59,35.40
2012,03,12,05,00,29.00
2012,03,12,05,01,48.30
2012,03,12,05,02,24.20
2012,03,12,05,03,37.00
2012,03,12,05,04,32.20
2012,03,12,05,05,35.40
2012,03,12,05,06,27.40
2012,03,12,05,07,32.20
2012,03,12,05,08,24.20
2012,03,12,05,09,37.00
2012,03,12,05,10,38.60
2012,03,12,05,11,37.00
2012,03,12,05,12,35.40
2012,03,12,05,13,35.40
2012,03,12,05,14,32.20
2012,03,12,05,15,27.40
2012,03,12,05,16,30.60
2012,03,12,05,17,32.20
2012,03,12,05,18,32.20
2012,03,12,05,19,32.20
2012,03,12,05,20,33.80
2012,03,12,05,21,33.80
2012,03,12,05,22,32.20
2012,03,12,05,23,29.00
2012,03,12,05,24,25.70
2012,03,12,05,25,40.20
2012,03,12,05,26,27.40
2012,03,12,05,27,25.70
2012,03,12,05,28,27.40
2012,03,12,05,29,20.90
2012,03,12,05,30,24.20
2012,03,12,05,31,25.70
2012,03,12,05,32,30.60
2012,03,12,05,33,32.20
2012,03,12,05,34,48.30
2012,03,12,05,35,33.80
2012,03,12,05,36,48.30
2012,03,12,05,37,41.80
2012,03,12,05,38,22.50
2012,03,12,05,39,38.60
2012,03,12,05,40,29.00
2012,03,12,05,41,35.40
2012,03,12,05,42,24.20
2012,03,12,05,43,40.20
2012,03,12,05,44,41.80
2012,03,12,05,45,29.00
2012,03,12,05,46,38.60
2012,03,12,05,47,41.80
2012,03,12,05,48,43.50
2012,03,12,05,49,29.00
2012,03,12,05,50,41.80
2012,03,12,05,51,32.20
2012,03,12,05,52,49.90
2012,03,12,05,53,45.10
2012,03,12,05,54,29.00
2012,03,12,05,55,25.70
2012,03,12,05,56,38.60
2012,03,12,05,57,46.70
2012,03,12,05,58,32.20
2012,03,12,05,59,22.50
2012,03,12,06,00,37.00
2012,03,12,06,01,32.20
2012,03,12,06,02,25.70
2012,03,12,06,03,24.20
2012,03,12,06,04,29.00
2012,03,12,06,05,30.60
2012,03,12,06,06,35.40
2012,03,12,06,07,40.20
2012,03,12,06,08,30.60
2012,03,12,06,09,29.00
2012,03,12,06,10,43.50
2012,03,12,06,11,51.50
2012,03,12,06,12,41.80
2012,03,12,06,13,43.50
2012,03,12,06,14,62.70
2012,03,12,06,15,33.80
2012,03,12,06,16,29.00
2012,03,12,06,17,29.00
2012,03,12,06,18,32.20
2012,03,12,06,19,25.70
2012,03,12,06,20,46.70
2012,03,12,06,21,20.90
2012,03,12,06,22,19.30
2012,03,12,06,23,19.30
2012,03,12,06,24,32.20
2012,03,12,06,25,30.60
2012,03,12,06,26,35.40
2012,03,12,06,27,33.80
2012,03,12,06,28,27.40
2012,03,12,06,29,17.70
2012,03,12,06,30,29.00
2012,03,12,06,31,35.40
2012,03,12,06,32,30.60
2012,03,12,06,33,37.00
2012,03,12,06,34,37.00
2012,03,12,06,35,30.60
2012,03,12,06,36,37.00
2012,03,12,06,37,32.20
2012,03,12,06,38,29.00
2012,03,12,06,39,24.20
2012,03,12,06,40,32.20
2012,03,12,06,41,43.50
2012,03,12,06,42,45.10
2012,03,12,06,43,40.20
2012,03,12,06,44,30.60
2012,03,12,06,45,24.20
2012,03,12,06,46,25.70
2012,03,12,06,47,32.20
2012,03,12,06,48,53.10
2012,03,12,06,49,40.20
2012,03,12,06,50,30.60
2012,03,12,06,51,40.20
2012,03,12,06,52,32.20
2012,03,12,06,53,22.50
2012,03,12,06,54,29.00
2012,03,12,06,55,30.60
2012,03,12,06,56,46.70
2012,03,12,06,57,27.40
2012,03,12,06,58,41.80
2012,03,12,06,59,38.60
2012,03,12,07,00,46.70
2012,03,12,07,01,43.50
2012,03,12,07,02,43.50
2012,03,12,07,03,35.40
2012,03,12,07,04,33.80
2012,03,12,07,05,20.90
2012,03,12,07,06,38.60
2012,03,12,07,07,29.00
2012,03,12,07,08,25.70
2012,03,12,07,09,27.40
2012,03,12,07,10,33.80
2012,03,12,07,11,35.40
2012,03,12,07,12,27.40
2012,03,12,07,13,38.60
2012,03,12,07,14,32.20
2012,03,12,07,15,29.00
2012,03,12,07,16,25.70
2012,03,12,07,17,27.40
2012,03,12,07,18,32.20
2012,03,12,07,19,24.20
2012,03,12,07,20,24.20
2012,03,12,07,21,29.00
2012,03,12,07,22,33.80
2012,03,12,07,23,35.40
2012,03,12,07,24,40.20
2012,03,12,07,25,24.20
2012,03,12,07,26,29.00
2012,03,12,07,27,29.00
2012,03,12,07,28,25.70
2012,03,12,07,29,27.40
2012,03,12,07,30,29.00
2012,03,12,07,31,22.50
2012,03,12,07,32,41.80
2012,03,12,07,33,27.40
2012,03,12,07,34,30.60
2012,03,12,07,35,25.70
2012,03,12,07,36,27.40
2012,03,12,07,37,35.40
2012,03,12,07,38,48.30
2012,03,12,07,39,33.80
2012,03,12,07,40,35.40
2012,03,12,07,41,24.20
2012,03,12,07,42,33.80
2012,03,12,07,43,27.40
2012,03,12,07,44,29.00
2012,03,12,07,45,43.50
2012,03,12,07,46,49.90
2012,03,12,07,47,37.00
2012,03,12,07,48,27.40
2012,03,12,07,49,33.80
2012,03,12,07,50,24.20
2012,03,12,07,51,24.20
2012,03,12,07,52,32.20
2012,03,12,07,53,38.60
2012,03,12,07,54,32.20
2012,03,12,07,55,33.80
2012,03,12,07,56,25.70
2012,03,12,07,57,30.60
2012,03,12,07,58,24.20
2012,03,12,07,59,38.60
2012,03,12,08,00,20.90
2012,03,12,08,01,20.90
2012,03,12,08,02,35.40
2012,03,12,08,03,37.00
2012,03,12,08,04,32.20
2012,03,12,08,05,46.70
2012,03,12,08,06,37.00
2012,03,12,08,07,30.60
2012,03,12,08,08,32.20
2012,03,12,08,09,30.60
2012,03,12,08,10,29.00
2012,03,12,08,11,30.60
2012,03,12,08,12,40.20
2012,03,12,08,13,38.60
2012,03,12,08,14,33.80
2012,03,12,08,15,27.40
2012,03,12,08,16,19.30
2012,03,12,08,17,40.20
2012,03,12,08,18,27.40
2012,03,12,08,19,22.50
2012,03,12,08,20,22.50
2012,03,12,08,21,30.60
2012,03,12,08,22,29.00
2012,03,12,08,23,29.00
2012,03,12,08,24,35.40
2012,03,12,08,25,35.40
2012,03,12,08,26,45.10
2012,03,12,08,27,24.20
2012,03,12,08,28,30.60
2012,03,12,08,29,40.20
2012,03,12,08,30,29.00
2012,03,12,08,31,35.40
2012,03,12,08,32,40.20
2012,03,12,08,33,33.80
2012,03,12,08,34,32.20
2012,03,12,08,35,19.30
2012,03,12,08,36,49.90
2012,03,12,08,37,35.40
2012,03,12,08,38,30.60
2012,03,12,08,39,32.20
2012,03,12,08,40,25.70
2012,03,12,08,41,37.00
2012,03,12,08,42,29.00
2012,03,12,08,43,35.40
2012,03,12,08,44,35.40
2012,03,12,08,45,24.20
2012,03,12,08,46,32.20
2012,03,12,08,47,27.40
2012,03,12,08,48,32.20
2012,03,12,08,49,33.80
2012,03,12,08,50,17.70
2012,03,12,08,51,33.80
2012,03,12,08,52,30.60
2012,03,12,08,53,25.70
2012,03,12,08,54,37.00
2012,03,12,08,55,29.00
2012,03,12,08,56,33.80
2012,03,12,08,57,25.70
2012,03,12,08,58,33.80
2012,03,12,08,59,45.10
2012,03,12,09,00,46.70
2012,03,12,09,01,40.20
2012,03,12,09,02,24.20
2012,03,12,09,03,33.80
2012,03,12,09,04,37.00
2012,03,12,09,05,22.50
2012,03,12,09,06,30.60
2012,03,12,09,07,27.40
2012,03,12,09,08,32.20
2012,03,12,09,09,48.30
2012,03,12,09,10,38.60
2012,03,12,09,11,38.60
2012,03,12,09,12,30.60
2012,03,12,09,13,40.20
2012,03,12,09,14,35.40
2012,03,12,09,15,25.70
2012,03,12,09,16,25.70
2012,03,12,09,17,22.50
2012,03,12,09,18,35.40
2012,03,12,09,19,29.00
2012,03,12,09,20,32.20
2012,03,12,09,21,27.40
2012,03,12,09,22,25.70
2012,03,12,09,23,29.00
2012,03,12,09,24,41.80
2012,03,12,09,25,27.40
2012,03,12,09,26,27.40
2012,03,12,09,27,24.20
2012,03,12,09,28,29.00
2012,03,12,09,29,32.20
2012,03,12,09,30,20.90
2012,03,12,09,31,22.50
2012,03,12,09,32,24.20
2012,03,12,09,33,16.10
2012,03,12,09,34,27.40
2012,03,12,09,35,27.40
2012,03,12,09,36,35.40
2012,03,12,09,37,37.00
2012,03,12,09,38,27.40
2012,03,12,09,39,20.90
2012,03,12,09,40,25.70
2012,03,12,09,41,20.90
2012,03,12,09,42,20.90
2012,03,12,09,43,16.10
2012,03,12,09,44,24.20
2012,03,12,09,45,22.50
2012,03,12,09,46,27.40
2012,03,12,09,47,30.60
2012,03,12,09,48,22.50
2012,03,12,09,49,29.00
2012,03,12,09,50,24.20
2012,03,12,09,51,20.90
2012,03,12,09,52,27.40
2012,03,12,09,53,24.20
2012,03,12,09,54,32.20
2012,03,12,09,55,25.70
2012,03,12,09,56,30.60
2012,03,12,09,57,27.40
2012,03,12,09,58,27.40
2012,03,12,09,59,27.40
2012,03,12,10,00,22.50
2012,03,12,10,01,17.70
2012,03,12,10,02,24.20
2012,03,12,10,03,17.70
2012,03,12,10,04,17.70
2012,03,12,10,05,30.60
2012,03,12,10,06,24.20
2012,03,12,10,07,30.60
2012,03,12,10,08,27.40
2012,03,12,10,09,20.90
2012,03,12,10,10,25.70
2012,03,12,10,11,19.30
2012,03,12,10,12,24.20
2012,03,12,10,13,22.50
2012,03,12,10,14,19.30
2012,03,12,10,15,19.30
2012,03,12,10,16,17.70
2012,03,12,10,17,22.50
2012,03,12,10,18,24.20
2012,03,12,10,19,19.30
2012,03,12,10,20,19.30
2012,03,12,10,21,16.10
2012,03,12,10,22,20.90
2012,03,12,10,23,22.50
2012,03,12,10,24,19.30
2012,03,12,10,25,14.50
2012,03,12,10,26,17.70
2012,03,12,10,27,33.80
2012,03,12,10,28,29.00
2012,03,12,10,29,24.20
2012,03,12,10,30,17.70
2012,03,12,10,31,22.50
2012,03,12,10,32,19.30
2012,03,12,10,33,16.10
2012,03,12,10,34,19.30
2012,03,12,10,35,22.50
2012,03,12,10,36,19.30
2012,03,12,10,37,27.40
2012,03,12,10,38,24.20
2012,03,12,10,39,16.10
2012,03,12,10,40,20.90
2012,03,12,10,41,24.20
2012,03,12,10,42,27.40
2012,03,12,10,43,19.30
2012,03,12,10,44,20.90
2012,03,12,10,45,16.10
2012,03,12,10,46,14.50
2012,03,12,10,47,20.90
2012,03,12,10,48,16.10
2012,03,12,10,49,9.60
2012,03,12,10,50,16.10
2012,03,12,10,51,17.70
2012,03,12,10,52,17.70
2012,03,12,10,53,17.70
2012,03,12,10,54,11.30
2012,03,12,10,55,22.50
2012,03,12,10,56,16.10
2012,03,12,10,57,8.10
2012,03,12,10,58,20.90
2012,03,12,10,59,12.90
2012,03,12,11,00,19.30
2012,03,12,11,01,16.10
2012,03,12,11,02,9.60
2012,03,12,11,03,16.10
2012,03,12,11,04,11.30
2012,03,12,11,05,12.90
2012,03,12,11,06,8.10
2012,03,12,11,07,24.20
2012,03,12,11,08,11.30
2012,03,12,11,09,9.60
2012,03,12,11,10,4.80
2012,03,12,11,11,4.80
2012,03,12,11,12,11.30
2012,03,12,11,13,16.10
2012,03,12,11,14,17.70
2012,03,12,11,15,20.90
2012,03,12,11,16,24.20
2012,03,12,11,17,24.20
2012,03,12,11,18,17.70
2012,03,12,11,19,17.70
2012,03,12,11,20,9.60
2012,03,12,11,21,16.10
2012,03,12,11,22,24.20
2012,03,12,11,23,17.70
2012,03,12,11,24,19.30
2012,03,12,11,25,19.30
2012,03,12,11,26,16.10
2012,03,12,11,27,25.70
2012,03,12,11,28,17.70
2012,03,12,11,29,20.90
2012,03,12,11,30,22.50
2012,03,12,11,31,29.00
2012,03,12,11,32,20.90
2012,03,12,11,33,14.50
2012,03,12,11,34,11.30
2012,03,12,11,35,17.70
2012,03,12,11,36,16.10
2012,03,12,11,37,8.10
2012,03,12,11,38,9.60
2012,03,12,11,39,16.10
2012,03,12,11,40,9.60
2012,03,12,11,41,14.50
2012,03,12,11,42,11.30
2012,03,12,11,43,17.70
2012,03,12,11,44,12.90
2012,03,12,11,45,16.10
2012,03,12,11,46,16.10
2012,03,12,11,47,20.90
2012,03,12,11,48,19.30
2012,03,12,11,49,20.90
2012,03,12,11,50,14.50
2012,03,12,11,51,14.50
2012,03,12,11,52,20.90
2012,03,12,11,53,16.10
2012,03,12,11,54,19.30
2012,03,12,11,55,22.50
2012,03,12,11,56,19.30
2012,03,12,11,57,19.30
2012,03,12,11,58,22.50
2012,03,12,11,59,20.90
2012,03,12,12,00,29.00
2012,03,12,12,01,32.20
2012,03,12,12,02,24.20
2012,03,12,12,03,29.00
2012,03,12,12,04,25.70
2012,03,12,12,05,25.70
2012,03,12,12,06,20.90
2012,03,12,12,07,29.00
2012,03,12,12,08,27.40
2012,03,12,12,09,24.20
2012,03,12,12,10,29.00
2012,03,12,12,11,24.20
2012,03,12,12,12,24.20
2012,03,12,12,13,25.70
2012,03,12,12,14,25.70
2012,03,12,12,15,25.70
2012,03,12,12,16,14.50
2012,03,12,12,17,20.90
2012,03,12,12,18,27.40
2012,03,12,12,19,25.70
2012,03,12,12,20,22.50
2012,03,12,12,21,27.40
2012,03,12,12,22,17.70
2012,03,12,12,23,19.30
2012,03,12,12,24,30.60
2012,03,12,12,25,30.60
2012,03,12,12,26,38.60
2012,03,12,12,27,19.30
2012,03,12,12,28,24.20
2012,03,12,12,29,20.90
2012,03,12,12,30,24.20
2012,03,12,12,31,20.90
2012,03,12,12,32,25.70
2012,03,12,12,33,35.40
2012,03,12,12,34,30.60
2012,03,12,12,35,25.70
2012,03,12,12,36,22.50
2012,03,12,12,37,32.20
2012,03,12,12,38,29.00
2012,03,12,12,39,20.90
2012,03,12,12,40,20.90
2012,03,12,12,41,27.40
2012,03,12,12,42,27.40
2012,03,12,12,43,24.20
2012,03,12,12,44,27.40
2012,03,12,12,45,24.20
2012,03,12,12,46,16.10
2012,03,12,12,47,9.60
2012,03,12,12,48,20.90
2012,03,12,12,49,9.60
2012,03,12,12,50,9.60
2012,03,12,12,51,19.30
2012,03,12,12,52,14.50
2012,03,12,12,53,4.80
2012,03,12,12,54,19.30
2012,03,12,12,55,24.20
2012,03,12,12,56,9.60
2012,03,12,12,57,11.30
2012,03,12,12,58,11.30
2012,03,12,12,59,11.30
2012,03,12,13,00,9.60
2012,03,12,13,01,11.30
2012,03,12,13,02,20.90
2012,03,12,13,03,17.70
2012,03,12,13,04,11.30
2012,03,12,13,05,14.50
2012,03,12,13,06,11.30
2012,03,12,13,07,6.40
2012,03,12,13,08,4.80
2012,03,12,13,09,9.60
2012,03,12,13,10,19.30
2012,03,12,13,11,19.30
2012,03,12,13,12,12.90
2012,03,12,13,13,19.30
2012,03,12,13,14,22.50
2012,03,12,13,15,17.70
2012,03,12,13,16,24.20
2012,03,12,13,17,16.10
2012,03,12,13,18,14.50
2012,03,12,13,19,19.30
2012,03,12,13,20,14.50
2012,03,12,13,21,14.50
2012,03,12,13,22,8.10
2012,03,12,13,23,9.60
2012,03,12,13,24,9.60
2012,03,12,13,25,19.30
2012,03,12,13,26,16.10
2012,03,12,13,27,8.10
2012,03,12,13,28,16.10
2012,03,12,13,29,14.50
2012,03,12,13,30,20.90
2012,03,12,13,31,22.50
2012,03,12,13,32,27.40
2012,03,12,13,33,24.20
2012,03,12,13,34,24.20
2012,03,12,13,35,16.10
2012,03,12,13,36,19.30
2012,03,12,13,37,16.10
2012,03,12,13,38,16.10
2012,03,12,13,39,29.00
2012,03,12,13,40,25.70
2012,03,12,13,41,17.70
2012,03,12,13,42,25.70
2012,03,12,13,43,24.20
2012,03,12,13,44,22.50
2012,03,12,13,45,19.30
2012,03,12,13,46,27.40
2012,03,12,13,47,24.20
2012,03,12,13,48,27.40
2012,03,12,13,49,19.30
2012,03,12,13,50,24.20
2012,03,12,13,51,19.30
2012,03,12,13,52,20.90
2012,03,12,13,53,22.50
2012,03,12,13,54,19.30
2012,03,12,13,55,24.20
2012,03,12,13,56,20.90
2012,03,12,13,57,22.50
2012,03,12,13,58,22.50
2012,03,12,13,59,17.70
2012,03,12,14,00,17.70
2012,03,12,14,01,20.90
2012,03,12,14,02,16.10
2012,03,12,14,03,22.50
2012,03,12,14,04,20.90
2012,03,12,14,05,20.90
2012,03,12,14,06,24.20
2012,03,12,14,07,20.90
2012,03,12,14,08,17.70
2012,03,12,14,09,22.50
2012,03,12,14,10,25.70
2012,03,12,14,11,22.50
2012,03,12,14,12,19.30
2012,03,12,14,13,16.10
2012,03,12,14,14,14.50
2012,03,12,14,15,22.50
2012,03,12,14,16,19.30
2012,03,12,14,17,24.20
2012,03,12,14,18,24.20
2012,03,12,14,19,20.90
2012,03,12,14,20,22.50
2012,03,12,14,21,19.30
2012,03,12,14,22,17.70
2012,03,12,14,23,20.90
2012,03,12,14,24,22.50
2012,03,12,14,25,38.60
2012,03,12,14,26,37.00
2012,03,12,14,27,40.20
2012,03,12,14,28,32.20
2012,03,12,14,29,33.80
2012,03,12,14,30,37.00
2012,03,12,14,31,38.60
2012,03,12,14,32,20.90
2012,03,12,14,33,22.50
2012,03,12,14,34,25.70
2012,03,12,14,35,30.60
2012,03,12,14,36,37.00
2012,03,12,14,37,25.70
2012,03,12,14,38,32.20
2012,03,12,14,39,29.00
2012,03,12,14,40,27.40
2012,03,12,14,41,22.50
2012,03,12,14,42,25.70
2012,03,12,14,43,20.90
2012,03,12,14,44,20.90
2012,03,12,14,45,20.90
2012,03,12,14,46,20.90
2012,03,12,14,47,22.50
2012,03,12,14,48,19.30
2012,03,12,14,49,24.20
2012,03,12,14,50,22.50
2012,03,12,14,51,20.90
2012,03,12,14,52,19.30
2012,03,12,14,53,24.20
2012,03,12,14,54,16.10
2012,03,12,14,55,20.90
2012,03,12,14,56,30.60
2012,03,12,14,57,20.90
2012,03,12,14,58,19.30
2012,03,12,14,59,19.30
2012,03,12,15,00,19.30
2012,03,12,15,01,16.10
2012,03,12,15,02,16.10
2012,03,12,15,03,24.20
2012,03,12,15,04,20.90
2012,03,12,15,05,29.00
2012,03,12,15,06,24.20
2012,03,12,15,07,20.90
2012,03,12,15,08,22.50
2012,03,12,15,09,14.50
2012,03,12,15,10,24.20
2012,03,12,15,11,19.30
2012,03,12,15,12,11.30
2012,03,12,15,13,16.10
2012,03,12,15,14,17.70
2012,03,12,15,15,14.50
2012,03,12,15,16,11.30
2012,03,12,15,17,11.30
2012,03,12,15,18,12.90
2012,03,12,15,19,11.30
2012,03,12,15,20,14.50
2012,03,12,15,21,9.60
2012,03,12,15,22,14.50
2012,03,12,15,23,17.70
2012,03,12,15,24,16.10
2012,03,12,15,25,16.10
2012,03,12,15,26,14.50
2012,03,12,15,27,11.30
2012,03,12,15,28,17.70
2012,03,12,15,29,9.60
2012,03,12,15,30,19.30
2012,03,12,15,31,14.50
2012,03,12,15,32,19.30
2012,03,12,15,33,14.50
2012,03,12,15,34,11.30
2012,03,12,15,35,9.60
2012,03,12,15,36,9.60
2012,03,12,15,37,9.60
2012,03,12,15,38,8.10
2012,03,12,15,39,11.30
2012,03,12,15,40,8.10
2012,03,12,15,41,8.10
2012,03,12,15,42,11.30
2012,03,12,15,43,8.10
2012,03,12,15,44,11.30
2012,03,12,15,45,9.60
2012,03,12,15,46,8.10
2012,03,12,15,47,6.40
2012,03,12,15,48,12.90
2012,03,12,15,49,9.60
2012,03,12,15,50,6.40
2012,03,12,15,51,6.40
2012,03,12,15,52,8.10
2012,03,12,15,53,9.60
2012,03,12,15,54,16.10
2012,03,12,15,55,16.10
2012,03,12,15,56,11.30
2012,03,12,15,57,9.60
2012,03,12,15,58,16.10
2012,03,12,15,59,11.30
2012,03,12,16,00,19.30
2012,03,12,16,01,9.60
2012,03,12,16,02,9.60
2012,03,12,16,03,19.30
2012,03,12,16,04,9.60
2012,03,12,16,05,24.20
2012,03,12,16,06,19.30
2012,03,12,16,07,19.30
2012,03,12,16,08,11.30
2012,03,12,16,09,14.50
2012,03,12,16,10,19.30
2012,03,12,16,11,11.30
2012,03,12,16,12,16.10
2012,03,12,16,13,17.70
2012,03,12,16,14,19.30
2012,03,12,16,15,17.70
2012,03,12,16,16,16.10
2012,03,12,16,17,14.50
2012,03,12,16,18,17.70
2012,03,12,16,19,19.30
2012,03,12,16,20,12.90
2012,03,12,16,21,16.10
2012,03,12,16,22,16.10
2012,03,12,16,23,9.60
2012,03,12,16,24,11.30
2012,03,12,16,25,8.10
2012,03,12,16,26,11.30
2012,03,12,16,27,11.30
2012,03,12,16,28,9.60
2012,03,12,16,29,14.50
2012,03,12,16,30,14.50
2012,03,12,16,31,11.30
2012,03,12,16,32,9.60
2012,03,12,16,33,16.10
2012,03,12,16,34,14.50
2012,03,12,16,35,11.30
2012,03,12,16,36,14.50
2012,03,12,16,37,11.30
2012,03,12,16,38,8.10
2012,03,12,16,39,8.10
2012,03,12,16,40,6.40
2012,03,12,16,41,9.60
2012,03,12,16,42,14.50
2012,03,12,16,43,11.30
2012,03,12,16,44,9.60
2012,03,12,16,45,6.40
2012,03,12,16,46,9.60
2012,03,12,16,47,9.60
2012,03,12,16,48,11.30
2012,03,12,16,49,9.60
2012,03,12,16,50,8.10
2012,03,12,16,51,9.60
2012,03,12,16,52,9.60
2012,03,12,16,53,11.30
2012,03,12,16,54,3.20
2012,03,12,16,55,4.80
2012,03,12,16,56,6.40
2012,03,12,16,57,6.40
2012,03,12,16,58,11.30
2012,03,12,16,59,8.10
2012,03,12,17,00,6.40
2012,03,12,17,01,6.40
2012,03,12,17,02,9.60
2012,03,12,17,03,6.40
2012,03,12,17,04,6.40
2012,03,12,17,05,4.80
2012,03,12,17,06,4.80
2012,03,12,17,07,4.80
2012,03,12,17,08,4.80
2012,03,12,17,09,8.10
2012,03,12,17,10,4.80
2012,03,12,17,11,4.80
2012,03,12,17,12,4.80
2012,03,12,17,13,6.40
2012,03,12,17,14,3.20
2012,03,12,17,15,3.20
2012,03,12,17,16,4.80
2012,03,12,17,17,3.20
2012,03,12,17,18,3.20
2012,03,12,17,19,6.40
2012,03,12,17,20,4.80
2012,03,12,17,21,4.80
2012,03,12,17,22,3.20
2012,03,12,17,23,6.40
2012,03,12,17,24,6.40